Current conditions around Wisconsin

 

						ASUS43 KMKX 180610
RWRWI

WISCONSIN REGIONAL WEATHER ROUNDUP
NATIONAL WEATHER SERVICE MILWAUKEE/SULLIVAN WI
1200 AM CST MON FEB 18 2019

NOTE: "FAIR" INDICATES FEW OR NO CLOUDS BELOW 12,000 FEET WITH NO
SIGNIFICANT WEATHER AND/OR OBSTRUCTIONS TO VISIBILITY.

WIZ001-002-006>008-014>016-023>028-180700-
NORTHWEST WISCONSIN

CITY           SKY/WX    TMP DP  RH WIND       PRES   REMARKS
SUPERIOR ARPT  FLURRIES   5   2  87 CALM      30.27R
6HR MIN TEMP:   1; 6HR MAX TEMP:  15;

ASHLAND        MOCLDY     5   1  83 N8        30.25R WCI  -8
6HR MIN TEMP:  -1; 6HR MAX TEMP:  15; 6HR PCP: TRACE;

HAYWARD        FAIR       4   2  91 N5        30.19R WCI  -5
6HR MIN TEMP:   4; 6HR MAX TEMP:  15; 6HR PCP: TRACE;

SIREN          FAIR       6   2  86 NE3       30.23R
6HR MIN TEMP:   6; 6HR MAX TEMP:  19;

CUMBERLAND     FAIR      10   3  72 N7        30.17R WCI   0
RICE LAKE      FAIR       9   6  88 N7        30.19R WCI  -2
6HR MIN TEMP:   8; 6HR MAX TEMP:  19;

CHETEK         FAIR       8   5  87 CALM      30.18R
6HR MIN TEMP:   8; 6HR MAX TEMP:  21;

LADYSMITH      FAIR      11   6  80 N3        30.17R
6HR MIN TEMP:  11; 6HR MAX TEMP:  20;

EAU CLAIRE     FAIR      13   6  74 N7        30.16R WCI   3
6HR MIN TEMP:  13; 6HR MAX TEMP:  22;

MENOMONIE      MOCLDY    10   3  75 N7        30.18R WCI  -2
6HR MIN TEMP:   9; 6HR MAX TEMP:  19;

NEW RICHMOND   FAIR       8   3  78 N8        30.19R WCI  -4
6HR MIN TEMP:   8; 6HR MAX TEMP:  20;

OSCEOLA        FAIR      11   6  79 N6        30.24R WCI   2
6HR MIN TEMP:  11; 6HR MAX TEMP:  20;

$$

WIZ003>005-009-010-017-018-180700-
NORTH CENTRAL WISCONSIN

CITY           SKY/WX    TMP DP  RH WIND       PRES   REMARKS
MANITOWISH WTR NOT AVBL
ARBOR VITAE    CLOUDY    11   8  85 N6        30.12R WCI   2
6HR MIN TEMP:  11; 6HR MAX TEMP:  17;

WOODRUFF       CLOUDY    11   8  85 N6        30.12R WCI   2
6HR MIN TEMP:  11; 6HR MAX TEMP:  17;

RHINELANDER    MOCLDY    12   6  77 VRB7      30.10R WCI   1
6HR MIN TEMP:  13; 6HR MAX TEMP:  17; 6HR PCP: TRACE;

EAGLE RIVER    FAIR       9   4  80 N8        30.10R WCI  -3
6HR MIN TEMP:  10; 6HR MAX TEMP:  15;

LAND O LAKES   LGT SNOW   6   4  88 N3        30.13R
6HR MIN TEMP:   6; 6HR MAX TEMP:  15;

PHILLIPS       FLURRIES  10   6  85 NE9       30.13R WCI  -4
6HR MIN TEMP:  10; 6HR MAX TEMP:  17;

TOMAHAWK       FLURRIES  11   7  81 N6        30.12R WCI   2
6HR MIN TEMP:  11; 6HR MAX TEMP:  17;

MEDFORD        MOCLDY    11   6  82 N8        30.09R WCI  -1
6HR MIN TEMP:  11; 6HR MAX TEMP:  18;

MERRILL        FLURRIES  11   7  82 NE6       30.12R WCI   2
6HR MIN TEMP:  12; 6HR MAX TEMP:  20;

$$

WIZ029-030-035-036-043>047-180700-
CENTRAL WISCONSIN

CITY           SKY/WX    TMP DP  RH WIND       PRES   REMARKS
WAUSAU         LGT SNOW  13   7  77 N8        30.09R WCI   2
6HR MIN TEMP:  13; 6HR MAX TEMP:  20; 6HR PCP: TRACE;

MOSINEE        LGT SNOW  14  10  85 N12       30.10R WCI   0
MARSHFIELD     FAIR      14   7  73 NE13      30.08R WCI   0
6HR MIN TEMP:  14; 6HR MAX TEMP:  21;

STEVENS POINT  MIX PCPN  16  11  83 N8        30.09R WCI   5
6HR MIN TEMP:  16; 6HR MAX TEMP:  19;

WAUPACA        LGT SNOW  20  16  81 N7        30.09R WCI  12
6HR MIN TEMP:  20; 6HR MAX TEMP:  24;

WAUTOMA        FLURRIES  19  14  81 NE10      30.09R WCI   7
6HR MIN TEMP:  18; 6HR MAX TEMP:  21; 6HR PCP: TRACE;

WISC RAPIDS    MOCLDY    17   9  70 N12       30.10R WCI   4
6HR MIN TEMP:  17; 6HR MAX TEMP:  22; 6HR PCP: TRACE;

CAMP DOUGLAS   CLOUDY    18  18 100 N5        30.10R WCI  11
6HR MIN TEMP:  13; 6HR MAX TEMP:  21; 6HR PCP:  0.01;

$$

WIZ011>013-019>022-031-037>040-048>050-180700-
NORTHEAST WISCONSIN

CITY           SKY/WX    TMP DP  RH WIND       PRES   REMARKS
ANTIGO         FLURRIES  11   8  85 N8        30.08R WCI   0
6HR MIN TEMP:  11; 6HR MAX TEMP:  19;

SHAWANO        FAIR      17  12  80 N6        30.11R WCI   9
6HR MIN TEMP:  19; 6HR MAX TEMP:  23;

OCONTO         MOCLDY    15  11  83 N6        30.10S WCI   7
6HR MIN TEMP:  15; 6HR MAX TEMP:  20;

STURGEON BAY   MOCLDY    14   9  80 N8        30.05F WCI   3
6HR MIN TEMP:  14; 6HR MAX TEMP:  20; 6HR PCP: TRACE;

GREEN BAY      CLOUDY    21  13  71 N15       30.09R WCI   8
6HR MIN TEMP:  21; 6HR MAX TEMP:  23; 6HR PCP: TRACE;

MANITOWOC      FLURRIES  22  17  81 NE10G16   30.05R WCI  11
6HR MIN TEMP:  20; 6HR MAX TEMP:  24; 6HR PCP: TRACE;

APPLETON       CLOUDY    18  10  73 N13       30.05R WCI   4
CLINTONVILLE   CLOUDY    19  13  79 NE9G16    30.10R WCI   8
6HR MIN TEMP:  19; 6HR MAX TEMP:  22;

OSHKOSH        LGT SNOW  19  14  81 N20       30.06R WCI   3
6HR MIN TEMP:  19; 6HR MAX TEMP:  20; 6HR PCP: TRACE;

$$

WIZ032>034-041-042-053>061-180700-
SOUTHWEST WISCONSIN

CITY           SKY/WX    TMP DP  RH WIND       PRES   REMARKS
LA CROSSE      CLOUDY    12  10  92 NW6       30.14R WCI   3
6HR MIN TEMP:   9; 6HR MAX TEMP:  24; 6HR PCP: TRACE;

SPARTA         FAIR      13  11  95 CALM      30.12R
6HR MIN TEMP:   7; 6HR MAX TEMP:  21;

VIROQUA        MOCLDY    17  17 100 N7        30.07R WCI   8
6HR MIN TEMP:  15; 6HR MAX TEMP:  21;

BOSCOBEL       CLOUDY    14  11  87 CALM      30.11R
6HR MIN TEMP:  14; 6HR MAX TEMP:  24; 6HR PCP: TRACE;

PRAIRIE DU CHI CLOUDY    17  14  86 CALM      30.11R
6HR MIN TEMP:  17; 6HR MAX TEMP:  24;

PLATTEVILLE    MOCLDY    17  16  95 N10       30.05R WCI   5
6HR MIN TEMP:  17; 6HR MAX TEMP:  23;

$$

WIZ056-057-062-063-064-067-068-180700-
SOUTH CENTRAL WISCONSIN

CITY           SKY/WX    TMP DP  RH WIND       PRES   REMARKS
REEDSBURG      MIX PCPN  18  14  82 N8        30.08R WCI   8
6HR MIN TEMP:  17; 6HR MAX TEMP:  21;

BARABOO/DELLS  FLURRIES  18  14  86 N6        30.07R WCI  10
6HR MIN TEMP:  18; 6HR MAX TEMP:  20;

LONE ROCK      CLOUDY    20  15  81 N8        30.09R WCI  10
6HR MIN TEMP:  19; 6HR MAX TEMP:  23; 6HR PCP: TRACE;

MINERAL POINT  FLURRIES  19  19 100 N10       30.03R WCI   8
MADISON        LGT SNOW  19  14  81 N14       30.04R WCI   6
6HR MIN TEMP:  18; 6HR MAX TEMP:  21; 6HR PCP:  0.06;

MIDDLETON      CLOUDY    20  17  86 N9        30.04R WCI  10
6HR MIN TEMP:  20; 6HR MAX TEMP:  23;

WATERTOWN      FLURRIES  19  18  94 N9        30.01R WCI   8
6HR MIN TEMP:  19; 6HR MAX TEMP:  22;

MONROE         LGT SNOW  19  16  87 MISG      30.00R
6HR MIN TEMP:  19; 6HR MAX TEMP:  22;

JANESVILLE     FLURRIES  21  19  93 N10       30.01R WCI  10
$$

WIZ051-052-058>065-066-070>072-180700-
SOUTHEAST WISCONSIN

CITY           SKY/WX    TMP DP  RH WIND       PRES   REMARKS
MILWAUKEE      LGT SNOW  26  21  81 NE9       29.99R WCI  17
6HR MIN TEMP:  26; 6HR MAX TEMP:  27; 6HR PCP:  0.04;

WAUKESHA       LGT SNOW  19  18  93 N6        30.00R WCI  11
MILWAUKEE/TIMM LGT SNOW  23  19  86 N6        30.01R WCI  16
RACINE         LGT SNOW  25  21  85 NE10      30.00R FOG     WCI  15
6HR MIN TEMP:  25; 6HR MAX TEMP:  27; 6HR PCP: TRACE;

KENOSHA        LGT SNOW  26  24  92 NE8       29.97R FOG     WCI  18
6HR MIN TEMP:  26; 6HR MAX TEMP:  27; 6HR PCP: TRACE;

FOND DU LAC    FLURRIES  19  15  84 N17G24    30.05R WCI   4
6HR MIN TEMP:  19; 6HR MAX TEMP:  19; 6HR PCP: TRACE;

SHEBOYGAN      LGT SNOW  23  19  85 N18G26    30.02R FOG     WCI   9
6HR MIN TEMP:  21; 6HR MAX TEMP:  24; 6HR PCP: TRACE;

WEST BEND      LGT SNOW  21  21 100 N8        30.00R WCI  12
JUNEAU         CLOUDY    18  15  88 N13G23    30.03R FOG     WCI   4
6HR MIN TEMP:  18; 6HR MAX TEMP:  20;

$$

LSZ147-162-180700-
LAKE SUPERIOR

STATION/POSITION TIME  TEMP    WIND        PRES    WAVE
                       AIR SEA DIR/SP/G            HT/PER
                 (UTC) (F)     (DEG/KT/KT) (MB)    (FT/S)
DEVILS ISLAND    0600   13      70/ 15/ 19 1026.7R
SAXON HARBOR     0540    5      CALM  /  2 1023.7R
$$

LMZ867-665-643>646-180700-
LAKE MICHIGAN

STATION/POSITION TIME  TEMP    WIND        PRES    WAVE
                       AIR SEA DIR/SP/G            HT/PER
                 (UTC) (F)     (DEG/KT/KT) (MB)    (FT/S)
CHAMBERS ISLAND  0540


ASUS43 KMKX 180620
RWRWI

WISCONSIN REGIONAL WEATHER ROUNDUP
NATIONAL WEATHER SERVICE MILWAUKEE/SULLIVAN WI
1200 AM CST MON FEB 18 2019

NOTE: "FAIR" INDICATES FEW OR NO CLOUDS BELOW 12,000 FEET WITH NO
SIGNIFICANT WEATHER AND/OR OBSTRUCTIONS TO VISIBILITY.

WIZ001-002-006>008-014>016-023>028-180700-
NORTHWEST WISCONSIN

CITY           SKY/WX    TMP DP  RH WIND       PRES   REMARKS
SUPERIOR ARPT  FLURRIES   5   2  87 CALM      30.27R
6HR MIN TEMP:   1; 6HR MAX TEMP:  15;

ASHLAND        FAIR       1  -3  83 N8        30.26R WCI -13
6HR MIN TEMP:  -1; 6HR MAX TEMP:  15; 6HR PCP: TRACE;

HAYWARD        FAIR       4   2  91 N5        30.19R WCI  -5
6HR MIN TEMP:   4; 6HR MAX TEMP:  15; 6HR PCP: TRACE;

SIREN          FAIR       6   2  86 NE3       30.23R
6HR MIN TEMP:   6; 6HR MAX TEMP:  19;

CUMBERLAND     FAIR       9   3  78 N7        30.18R WCI  -3
RICE LAKE      FAIR       9   6  88 N7        30.19R WCI  -2
6HR MIN TEMP:   8; 6HR MAX TEMP:  19;

CHETEK         FAIR       6   3  88 CALM      30.19R
6HR MIN TEMP:   8; 6HR MAX TEMP:  21;

LADYSMITH      FAIR      10   6  84 N5        30.17R WCI   1
6HR MIN TEMP:  11; 6HR MAX TEMP:  20;

EAU CLAIRE     FAIR      13   6  74 N7        30.16R WCI   3
6HR MIN TEMP:  13; 6HR MAX TEMP:  22;

MENOMONIE      CLOUDY    10   3  75 N7        30.19R WCI  -2
6HR MIN TEMP:   9; 6HR MAX TEMP:  19;

NEW RICHMOND   FAIR       8   3  78 N8        30.19S WCI  -4
6HR MIN TEMP:   8; 6HR MAX TEMP:  20;

OSCEOLA        FAIR      11   6  79 N5        30.24R WCI   3
6HR MIN TEMP:  11; 6HR MAX TEMP:  20;

$$

WIZ003>005-009-010-017-018-180700-
NORTH CENTRAL WISCONSIN

CITY           SKY/WX    TMP DP  RH WIND       PRES   REMARKS
MANITOWISH WTR NOT AVBL
ARBOR VITAE    FAIR      10   6  84 N7        30.12R WCI   0
6HR MIN TEMP:  11; 6HR MAX TEMP:  17;

WOODRUFF       FAIR      10   6  84 N7        30.12R WCI   0
6HR MIN TEMP:  11; 6HR MAX TEMP:  17;

RHINELANDER    MOCLDY    12   6  77 VRB7      30.10R WCI   1
6HR MIN TEMP:  13; 6HR MAX TEMP:  17; 6HR PCP: TRACE;

EAGLE RIVER    FAIR       9   4  80 N8        30.10R WCI  -3
6HR MIN TEMP:  10; 6HR MAX TEMP:  15;

LAND O LAKES   LGT SNOW   5   3  88 N3        30.14R
6HR MIN TEMP:   6; 6HR MAX TEMP:  15;

PHILLIPS       FLURRIES  10   6  85 NE9       30.13R WCI  -4
6HR MIN TEMP:  10; 6HR MAX TEMP:  17;

TOMAHAWK       FLURRIES  11   7  81 N6        30.12R WCI   2
6HR MIN TEMP:  11; 6HR MAX TEMP:  17;

MEDFORD        FAIR      10   6  84 N8        30.10R WCI  -2
6HR MIN TEMP:  11; 6HR MAX TEMP:  18;

MERRILL        FLURRIES  11   7  82 NE6       30.12R WCI   2
6HR MIN TEMP:  12; 6HR MAX TEMP:  20;

$$

WIZ029-030-035-036-043>047-180700-
CENTRAL WISCONSIN

CITY           SKY/WX    TMP DP  RH WIND       PRES   REMARKS
WAUSAU         LGT SNOW  13   7  77 N8        30.09R WCI   2
6HR MIN TEMP:  13; 6HR MAX TEMP:  20; 6HR PCP: TRACE;

MOSINEE        LGT SNOW  14  10  85 N12       30.11R WCI   0
MARSHFIELD     FAIR      14   7  73 NE13      30.08R WCI   0
6HR MIN TEMP:  14; 6HR MAX TEMP:  21;

STEVENS POINT  MIX PCPN  16  11  83 N8        30.09R WCI   5
6HR MIN TEMP:  16; 6HR MAX TEMP:  19;

WAUPACA        LGT SNOW  20  15  81 N8        30.10R WCI  11
6HR MIN TEMP:  20; 6HR MAX TEMP:  24;

WAUTOMA        FLURRIES  19  14  81 NE10      30.09R WCI   7
6HR MIN TEMP:  18; 6HR MAX TEMP:  21; 6HR PCP: TRACE;

WISC RAPIDS    FLURRIES  17   9  70 N10       30.11R WCI   5
6HR MIN TEMP:  17; 6HR MAX TEMP:  22; 6HR PCP: TRACE;

CAMP DOUGLAS   CLOUDY    18  18 100 N5        30.10R WCI  11
6HR MIN TEMP:  13; 6HR MAX TEMP:  21; 6HR PCP:  0.01;

$$

WIZ011>013-019>022-031-037>040-048>050-180700-
NORTHEAST WISCONSIN

CITY           SKY/WX    TMP DP  RH WIND       PRES   REMARKS
ANTIGO         FLURRIES  11   7  87 N7        30.08R WCI   0
6HR MIN TEMP:  11; 6HR MAX TEMP:  19;

SHAWANO        FAIR      17  12  80 N6        30.11R WCI   9
6HR MIN TEMP:  19; 6HR MAX TEMP:  23;

OCONTO         MOCLDY    15  11  83 N6        30.10S WCI   7
6HR MIN TEMP:  15; 6HR MAX TEMP:  20;

STURGEON BAY   MOCLDY    14   9  80 N8        30.05F WCI   3
6HR MIN TEMP:  14; 6HR MAX TEMP:  20; 6HR PCP: TRACE;

GREEN BAY      CLOUDY    21  13  71 N15       30.09R WCI   8
6HR MIN TEMP:  21; 6HR MAX TEMP:  23; 6HR PCP: TRACE;

MANITOWOC      FLURRIES  21  18  86 N14G20    30.06R WCI   8
6HR MIN TEMP:  20; 6HR MAX TEMP:  24; 6HR PCP: TRACE;

APPLETON       CLOUDY    18  10  73 N13       30.05R WCI   4
CLINTONVILLE   CLOUDY    19  13  79 NE9G16    30.10R WCI   8
6HR MIN TEMP:  19; 6HR MAX TEMP:  22;

OSHKOSH        LGT SNOW  19  14  81 N20       30.06R WCI   3
6HR MIN TEMP:  19; 6HR MAX TEMP:  20; 6HR PCP: TRACE;

$$

WIZ032>034-041-042-053>061-180700-
SOUTHWEST WISCONSIN

CITY           SKY/WX    TMP DP  RH WIND       PRES   REMARKS
LA CROSSE      CLOUDY    12  10  92 NW6       30.14R WCI   3
6HR MIN TEMP:   9; 6HR MAX TEMP:  24; 6HR PCP: TRACE;

SPARTA         FAIR      13  11  95 CALM      30.12R
6HR MIN TEMP:   7; 6HR MAX TEMP:  21;

VIROQUA        FAIR      17  17  99 N9        30.08R WCI   6
6HR MIN TEMP:  15; 6HR MAX TEMP:  21;

BOSCOBEL       CLOUDY    14  11  87 CALM      30.11R
6HR MIN TEMP:  14; 6HR MAX TEMP:  24; 6HR PCP: TRACE;

PRAIRIE DU CHI CLOUDY    18  14  86 CALM      30.11R
6HR MIN TEMP:  17; 6HR MAX TEMP:  24;

PLATTEVILLE    MOCLDY    17  16  95 N10       30.05R WCI   5
6HR MIN TEMP:  17; 6HR MAX TEMP:  23;

$$

WIZ056-057-062-063-064-067-068-180700-
SOUTH CENTRAL WISCONSIN

CITY           SKY/WX    TMP DP  RH WIND       PRES   REMARKS
REEDSBURG      LGT SNOW  19  14  84 N6        30.09R WCI  10
6HR MIN TEMP:  17; 6HR MAX TEMP:  21;

BARABOO/DELLS  LGT SNOW  19  15  84 N5        30.08R WCI  12
6HR MIN TEMP:  18; 6HR MAX TEMP:  20;

LONE ROCK      CLOUDY    20  15  81 N8        30.09R WCI  10
6HR MIN TEMP:  19; 6HR MAX TEMP:  23; 6HR PCP: TRACE;

MINERAL POINT  FLURRIES  19  19 100 N10       30.03R WCI   8
MADISON        LGT SNOW  19  14  81 N14       30.04R WCI   6
6HR MIN TEMP:  18; 6HR MAX TEMP:  21; 6HR PCP:  0.06;

MIDDLETON      CLOUDY    20  17  86 N9        30.04R WCI  10
6HR MIN TEMP:  20; 6HR MAX TEMP:  23;

WATERTOWN      FLURRIES  19  18  94 N12       30.02R WCI   7
6HR MIN TEMP:  19; 6HR MAX TEMP:  22;

MONROE         LGT SNOW  19  16  87 MISG      30.01R
6HR MIN TEMP:  19; 6HR MAX TEMP:  22;

JANESVILLE     CLOUDY    21  19  93 N9        30.02R WCI  11
$$

WIZ051-052-058>065-066-070>072-180700-
SOUTHEAST WISCONSIN

CITY           SKY/WX    TMP DP  RH WIND       PRES   REMARKS
MILWAUKEE      LGT SNOW  26  21  81 NE9       29.99R WCI  17
6HR MIN TEMP:  26; 6HR MAX TEMP:  27; 6HR PCP:  0.04;

WAUKESHA       LGT SNOW  19  18  93 N6        30.00R WCI  11
MILWAUKEE/TIMM LGT SNOW  23  19  86 N7        30.01R VSB 1   WCI  15
RACINE         LGT SNOW  25  21  85 NE10      30.00R FOG     WCI  15
6HR MIN TEMP:  25; 6HR MAX TEMP:  27; 6HR PCP: TRACE;

KENOSHA        LGT SNOW  26  24  92 NE8       29.97R FOG     WCI  18
6HR MIN TEMP:  26; 6HR MAX TEMP:  27; 6HR PCP: TRACE;

FOND DU LAC    FLURRIES  19  15  84 N17G24    30.05R WCI   4
6HR MIN TEMP:  19; 6HR MAX TEMP:  19; 6HR PCP: TRACE;

SHEBOYGAN      LGT SNOW  23  19  85 N18G26    30.02R FOG     WCI   9
6HR MIN TEMP:  21; 6HR MAX TEMP:  24; 6HR PCP: TRACE;

WEST BEND      LGT SNOW  21  21 100 N8        30.00R WCI  12
JUNEAU         CLOUDY    18  15  88 N13G23    30.03R FOG     WCI   4
6HR MIN TEMP:  18; 6HR MAX TEMP:  20;

$$

LSZ147-162-180700-
LAKE SUPERIOR

STATION/POSITION TIME  TEMP    WIND        PRES    WAVE
                       AIR SEA DIR/SP/G            HT/PER
                 (UTC) (F)     (DEG/KT/KT) (MB)    (FT/S)
DEVILS ISLAND    0600   13      70/ 15/ 19 1026.7R
SAXON HARBOR     0540    5      CALM  /  2 1023.7R
$$

LMZ867-665-643>646-180700-
LAKE MICHIGAN

STATION/POSITION TIME  TEMP    WIND        PRES    WAVE
                       AIR SEA DIR/SP/G            HT/PER
                 (UTC) (F)     (DEG/KT/KT) (MB)    (FT/S)
CHAMBERS ISLAND  0540


ASUS43 KMKX 180659
RWRWI

WISCONSIN REGIONAL WEATHER ROUNDUP
NATIONAL WEATHER SERVICE MILWAUKEE/SULLIVAN WI
100 AM CST MON FEB 18 2019

NOTE: "FAIR" INDICATES FEW OR NO CLOUDS BELOW 12,000 FEET WITH NO
SIGNIFICANT WEATHER AND/OR OBSTRUCTIONS TO VISIBILITY.

WIZ001-002-006>008-014>016-023>028-180800-
NORTHWEST WISCONSIN

CITY           SKY/WX    TMP DP  RH WIND       PRES   REMARKS
SUPERIOR ARPT  FLURRIES  10   7  85 CALM      30.29R
ASHLAND        MOCLDY     4   0  83 NE5       30.27R WCI  -5
HAYWARD        FAIR      -2  -6  83 CALM      30.21R
SIREN          FAIR       0  -4  86 N3        30.24R
CUMBERLAND     FAIR       9   3  78 N6        30.19R WCI  -1
RICE LAKE      FAIR       8   5  88 N5        30.20R WCI  -1
CHETEK         FAIR       4   2  91 CALM      30.20R
LADYSMITH      FAIR       8   5  86 N6        30.19R WCI  -2
EAU CLAIRE     FAIR      12   6  77 N7        30.18R WCI   1
MENOMONIE      CLOUDY     8   3  77 N6        30.20R WCI  -2
NEW RICHMOND   FAIR       7   1  79 N5        30.22R WCI  -2
OSCEOLA        FAIR      10   6  83 N5        30.26R WCI   1
$$

WIZ003>005-009-010-017-018-180800-
NORTH CENTRAL WISCONSIN

CITY           SKY/WX    TMP DP  RH WIND       PRES   REMARKS
MANITOWISH WTR NOT AVBL
ARBOR VITAE    FAIR       9   6  87 N5        30.13R WCI   1
WOODRUFF       FAIR       9   6  87 N5        30.13R WCI   1
RHINELANDER    MOCLDY    11   5  77 VRB5      30.11R WCI   3
EAGLE RIVER    FLURRIES   8   3  82 N7        30.11R WCI  -4
LAND O LAKES   FLURRIES   5   2  88 N6        30.14S WCI  -6
PHILLIPS       CLOUDY    10   5  82 N14       30.14R WCI  -7
TOMAHAWK       FLURRIES  11   6  82 N3        30.13R
MEDFORD        FAIR      10   6  84 N7        30.12R WCI  -2
MERRILL        FLURRIES  11   7  83 N8        30.12S WCI  -1
$$

WIZ029-030-035-036-043>047-180800-
CENTRAL WISCONSIN

CITY           SKY/WX    TMP DP  RH WIND       PRES   REMARKS
WAUSAU         FLURRIES  13   6  74 N8        30.11R WCI   2
MOSINEE        FLURRIES  12  10  92 N12       30.12R WCI  -2
MARSHFIELD     FAIR      13   7  77 NE12G20   30.10R WCI  -1
STEVENS POINT  MIX PCPN  14  10  85 N6        30.11R WCI   5
WAUPACA        LGT SNOW  20  15  81 N7        30.12R WCI  11
WAUTOMA        CLOUDY    18  14  84 N8        30.11R WCI   8
WISC RAPIDS    MOCLDY    15   7  70 N8        30.13R WCI   4
CAMP DOUGLAS   FLURRIES  17  16  93 N7        30.12R WCI   8
$$

WIZ011>013-019>022-031-037>040-048>050-180800-
NORTHEAST WISCONSIN

CITY           SKY/WX    TMP DP  RH WIND       PRES   REMARKS
ANTIGO         FLURRIES  10   6  87 N8        30.09R WCI  -3
SHAWANO        FLURRIES  18  13  82 N5        30.12R WCI  11
OCONTO         FAIR      15  11  83 N5        30.12R WCI   7
STURGEON BAY   FAIR      14   9  80 N15       30.09R WCI  -1
GREEN BAY      CLOUDY    20  11  68 N13       30.10R WCI   7
MANITOWOC      FLURRIES  20  17  88 N13       30.07R WCI   7
APPLETON       CLOUDY    18  10  73 N12       30.07R WCI   5
CLINTONVILLE   FAIR      18  12  79 N7        30.11R WCI   8
OSHKOSH        MIX PCPN  19  13  77 N15G23    30.08R WCI   5
$$

WIZ032>034-041-042-053>061-180800-
SOUTHWEST WISCONSIN

CITY           SKY/WX    TMP DP  RH WIND       PRES   REMARKS
LA CROSSE      CLOUDY    11   9  92 NW9       30.16R WCI  -2
SPARTA         FAIR      12  10  93 CALM      30.14R
VIROQUA        MOCLDY    17  17  98 N10       30.09R WCI   5
BOSCOBEL       CLOUDY    18  14  84 CALM      30.13R
PRAIRIE DU CHI CLOUDY    18  14  86 NW6       30.13R WCI   9
PLATTEVILLE    CLOUDY    19  17  95 N15       30.06R WCI   4
$$

WIZ056-057-062-063-064-067-068-180800-
SOUTH CENTRAL WISCONSIN

CITY           SKY/WX    TMP DP  RH WIND       PRES   REMARKS
REEDSBURG      FLURRIES  19  15  85 N7        30.10R WCI   9
BARABOO/DELLS  LGT SNOW  18  15  85 N5        30.09R WCI  11
LONE ROCK      NOT AVBL
MINERAL POINT  FLURRIES  19  19 100 N12       30.06R WCI   7
MADISON        CLOUDY    19  14  81 MISG      30.06R
MIDDLETON      CLOUDY    20  17  86 N9G18     30.06R WCI   9
WATERTOWN      FLURRIES  19  17  94 N12       30.04R WCI   6
MONROE         LGT SNOW  19  16  87 MISG      30.03R
JANESVILLE     FLURRIES  21  19  93 N10G16    30.04R WCI  10
$$

WIZ051-052-058>065-066-070>072-180800-
SOUTHEAST WISCONSIN

CITY           SKY/WX    TMP DP  RH WIND       PRES   REMARKS
MILWAUKEE      LGT SNOW  26  21  81 NE9       30.02R WCI  17
WAUKESHA       LGT SNOW  19  18  93 NW7       30.02R WCI  10
MILWAUKEE/TIMM LGT SNOW  23  19  86 N5        30.03R WCI  17
RACINE         LGT SNOW  26  21  81 NE13      30.02R WCI  15
KENOSHA        LGT SNOW  26  24  92 NE6       30.00R FOG     WCI  19
FOND DU LAC    LGT SNOW  18  14  84 N18G25    30.08R FOG     WCI   2
SHEBOYGAN      LGT SNOW  22  16  78 N12G21    30.04R WCI  10
WEST BEND      LGT SNOW  23  21  93 NE12      30.02R WCI  12
JUNEAU         CLOUDY    18  15  89 N14       30.05R WCI   4
$$

LSZ147-162-180800-
LAKE SUPERIOR

STATION/POSITION TIME  TEMP    WIND        PRES    WAVE
                       AIR SEA DIR/SP/G            HT/PER
                 (UTC) (F)     (DEG/KT/KT) (MB)    (FT/S)
DEVILS ISLAND    0600   13      70/ 15/ 19 1026.7R
SAXON HARBOR     0640   10      60/  9/ 13 1024.4R
$$

LMZ867-665-643>646-180800-
LAKE MICHIGAN

STATION/POSITION TIME  TEMP    WIND        PRES    WAVE
                       AIR SEA DIR/SP/G            HT/PER
                 (UTC) (F)     (DEG/KT/KT) (MB)    (FT/S)
CHAMBERS ISLAND  0640    9     330/  4/  6 1019.0R
NORTHPORT PIER   0640   13     330/  6/  7 1019.3S
KEWAUNEE LAKESHO 0624   20     350/  9/ 12 1017.5
SHEBOYGAN LAKESH 0600   26      30/ 25/ 27 1017.4R
PORT WASHINGTON  0640   24      20/ 10/ 15 1018.3R
KENOSHA   LAKESH 0600   27      60/ 15/ 17 1015.2
$$

TC  - TEMPERATURE IN CELSIUS
VSB - VISIBILITY IN STATUTE MILES
WCI - WIND CHILL INDEX
HX  - HEAT INDEX